Погода Одесское

Погода Одесское : погода сейчас, прогноз погоды и архив. Всё, что Вы хотите узнать о погоде Одесское!

Хотите узнать прогноз погоды Одесское? Тогда Вам сюда: Погода Одесское

Поиск расширенной информации на нашем сайте:

Другие новости

Новости СМИ2

Главная страница сайта

Новости сайта

03.07.2017

Напоминаем, что на нашем специализированном сайте Метеоцентр.Азия вы можете получить высокодетализированные автоматические прогнозы погоды по пунктам России, СНГ и мира в авиационном формате (включающие направление и скорость ветра, видимость, явления погоды, количество и форму облачности, нижнюю и верхнюю границу облачности).


Погода Одесское - сегодня

Время (UTC), дата Ветер
(°,м/с) 
Видим.   Явления Облачность Т
(°С)
Тd
(°С)
f(%) Тe
(°С)
Pmin
(гПа)
dP
(гПа)
Po
(мм)
O2
(г/м3)
Тmin Tmax R s Состояние
почвы
15 12.08.18 330 (СЗ) 5{11}  10 км    9/9 1200 м 
[Sc]
+13.2 +8.4 73 +12  1009.7  2.5  746  285    +13.4     
18 12.08.18 310 (СЗ) 10 км    6/0 верхняя 
[Ci fib]
+8 +6 87 +8  1011.2  1.2  747  291           
21 12.08.18 290 (З) 10 км    ясно 
+6.3 +5.2 93 +7  1012  0.7  748  294           
00 13.08.18 280 (З) 4000 м  дымка  3/0 средняя, верхняя 
[Ac trans|Ci]
+5.4 +4.9 97 +6  1013.9  1.8  749  295           
03 13.08.18 250 (З) 10 км    8/0 средняя, верхняя 
[Ac trans|Ci fib]
+13.8 +9.5 75 +15  1015  1.7  750  286  +5        влажная 
06 13.08.18 230 (ЮЗ) 10 км    4/3 1000 м верхняя 
[Cu hum|Cc]
+19.2 +8.8 51 +20  1015.1  0.3  750  281           
09 13.08.18 270 (З) 10 км    4/1 1000 м верхняя 
[Cu hum|Cc]
+21.1 +8.7 45 +21  1015.1  0.1  750  279           
12 13.08.18 230 (ЮЗ) 10 км    3/0 верхняя 
[Cc]
+22.9 +9.5 43 +23  1014.8  -0.2  750  277           
18 13.08.18 180 (Ю) 10 км    ясно 
+15.1 +12.4 84 +20  1016.6  0.6  751  284           
21 13.08.18 170 (Ю) 10 км    ясно 
+12.1 +9.9 86 +13  1017.3  0.5  752  288           
00 14.08.18 160 (Ю) 10 км    3/0 средняя, верхняя 
[Ac trans|Cc]
+12.4 +9.3 81 +12  1017.6  0.3  752  288           
03 14.08.18 150 (ЮВ) 10 км    3/0 средняя 
[Ac trans]
+15.5 +10.7 73 +18  1018.2  0.8  753  285  +11.6        сухая 
06 14.08.18 160 (Ю) 10 км    ясно 
+24.4 +10.5 42 +26  1017.2  -0.5  752  276           
09 14.08.18 180 (Ю) 10 км    ясно 
+26.9 +10.9 37 +29  1016.3  -0.8  752  274           
12 14.08.18 170 (Ю) 10 км    ясно 
+27.5 +11.3 36 +30  1015.3  -0.9  751  273           
15 14.08.18 130 (ЮВ) 10 км    ясно 
+22.2 +11.4 50 +25  1015.1  -0.5  750  278    +27.8       
18 14.08.18 130 (ЮВ) 10 км    ясно 
+17.6 +11.7 68 +21  1015.4  0.1  751  282           
21 14.08.18 120 (ЮВ) 10 км    ясно 
+14.8 +11.1 78 +18  1014.3  -1.2  750  284           
00 15.08.18 120 (ЮВ) 10 км    3/0 средняя 
[Ac cast]
+12.9 +10.5 85 +15  1013.7  -0.6  749  286           
03 15.08.18 130 (ЮВ) 10 км    6/0 верхняя 
[Ci fib]
+20 +11.8 59 +24  1012.7  -0.7  749  279  +12.6        сухая 
06 15.08.18 160 (Ю) 10 км    9/0 верхняя 
[Ci]
+26.3 +12 41 +30  1011.2  -1.2  748  273           
09 15.08.18 170 (Ю) 10 км    8/3 1000 м верхняя 
[Cu med, cong|Cc]
+28.9 +9.9 31 +30  1009.8  -1.3  747  270           
12 15.08.18 180 (Ю) 10 км    10/1 1000 м средняя, верхняя 
[Cu med, cong|Ac As|Ci]
+28.7 +9.4 30 +29  1008.6  -1.2  746  270           
15 15.08.18 110 (В) 10 км    10/3 600 м кучево-дожд., средняя, верхняя 
[Cb calv|Ac trans|Cc]
+23.4 +10.4 44 +25  1007.9  -0.8  745  275    +29.2       
18 15.08.18 110 (В) 10 км    10/0 средняя, верхняя 
[Ac trans|Ci fib]
+19.2 +11.1 59 +23  1006.9  -1.2  744  278           
Время (UTC), дата Ветер
(°,м/с) 
Видим.   Явления Облачность Т
(°С)
Тd
(°С)
f(%) Тe
(°С)
Pmin
(гПа)
dP
(гПа)
Po
(мм)
O2
(г/м3)
Тmin Tmax R s Состояние
почвы

Для получения пояснительной информации подведите курсор к названию столбца.

ПОГОДА Одесское - архив

Всё, что Вы хотите узнать о погоде Одесское - удобно и подробно!

Выберите нужную дату (начиная с 1 января 2015* года) и нажмите кнопку "Найти".
Будут отображены архивные сводки погоды по пункту Одесское, начиная с указанной даты.


Отображать данные в формате CSV (для использования в таблицах Excel)


Внимание! Наш архив погоды предназначен исключительно для личного некоммерческого использования в познавательных целях. Если Вам необходимы официальные справки о состоянии погоды (для производственных, юридических, коммерческих и т.п. целей), обращайтесь в органы Росгидромета.

*Примечание: данная дата относится к архиву по метеостанциям СССР (Россия, СНГ, Балтия).
Архив по метеостанциям Зарубежной Европы и Азии (кроме Китая) хранится 10 дней, по другим регионам земного шара (Китай, Африка, Америка, Австралия, Океания) - 1 день.

Одесское - район местоположения метеостанции


Название, широта, долгота, высота метеостанции:
Одесское 54.2°ш. 73°д. 125 м над ур. моря [Российская Федерация]

Дополнительная информация

В oтличие oт бoльшинства пoгoдных сайтoв мы публикуем пoдрoбную метеoинфoрмацию в детальнoм прoфессиoнальнoм фoрмате.

Характеристики температуры и влажнoсти вoздуха измеряются на высoте 2 м в тени вдали oт зданий и деревьев.
Скoрoсть ветра измеряется на высoте 10 м (на урoвне рoста челoвека скoрoсть ветра ниже в 1.5-2 раза). Если метеoстанция нахoдится в гoрoде или в лесу, тo скoрoсть ветра занижена на 2-4 м/с пo сравнению с oткрытым местoм. Скoрoсть ветра над акватoриями крупных рек и oзёр, а также на вершинах хoлмoв на 2-5 м/с выше, чем в oбычных услoвиях.
Атмoсфернoе давление в разных тoчках местнoсти мoжет значительнo oтличаться oт давления на метеoстанции, в зависимoсти oт услoвий рельефа (при пoдъёме на 10 м давление пoнижается примернo на 1 мм рт.ст.).